Temperature
11 11 11 11 11 11 11 11 11 11 11 12 12 12 12 12 13 13 13 13 14 14 14 14 14 14 14 14 14 14 14 14 15 15 15 16 16 16 16 16 16 15 15
11 11 11 11 10 11 10 10 11 11 11 11 11 12 12 12 12 12 13 13 13 13 13 14 14 14 14 14 14 14 14 14 14 14 15 15 15 15 15 15 15 15 15
11 11 11 11 10 10 10 10 10 10 10 11 11 11 11 11 12 12 12 12 13 13 13 13 13 14 14 14 14 14 14 14 14 14 14 14 14 14 14 14 14 14 14
12 11 11 11 10 10 10 10 10 10 10 10 10 10 11 11 11 11 12 12 12 12 13 13 13 13 13 13 13 14 14 13 14 14 14 14 14 14 14 14 13 13 13
12 11 11 10 10 10 10 10 10 10 10 10 10 10 10 11 11 11 11 12 12 12 12 12 13 13 13 13 13 13 13 13 13 13 14 13 13 13 13 13 13 13 13
12 11 11 10 10 10 10 10 9 9 9 10 10 10 10 10 10 11 11 11 11 12 12 12 12 12 13 13 13 13 13 13 13 13 13 13 13 13 13 13 13 13 12
12 11 11 10 10 10 10 10 9 9 9 9 9 10 10 10 10 10 10 11 11 11 12 12 12 12 12 13 13 13 13 13 13 13 13 13 13 13 13 13 13 13 13
12 11 11 10 10 10 10 10 10 9 9 9 9 9 9 9 10 10 10 10 11 11 11 11 12 12 12 12 13 13 13 13 13 13 13 14 14 13 13 13 13 12 12
12 11 11 11 10 10 10 10 10 10 9 9 9 9 9 9 9 10 10 10 10 11 11 11 11 12 12 12 12 13 13 13 13 13 13 13 13 13 13 13 12 12 12
12 12 11 11 11 10 10 10 10 10 10 9 9 9 9 9 9 9 10 10 10 10 11 11 11 11 12 12 12 12 13 13 13 13 13 13 13 13 13 13 13 12 12
13 12 12 11 11 11 10 10 10 10 10 10 9 9 9 9 9 9 9 10 10 10 11 11 11 11 12 12 12 12 13 13 13 13 13 13 12 12 12 12 12 12 12
13 13 12 11 11 11 11 10 10 10 10 10 10 10 9 9 9 9 10 10 10 10 11 11 11 11 11 12 12 12 12 13 13 13 12 12 12 12 12 12 12 12 12
14 13 13 12 12 11 11 11 10 10 10 10 10 10 10 10 9 9 10 10 10 10 10 11 11 11 11 12 12 12 12 12 13 13 12 12 12 12 12 12 11 11 11
14 14 13 12 12 12 11 11 11 11 10 10 10 10 10 10 9 9 10 10 10 10 10 11 11 11 11 12 12 12 12 12 12 13 12 12 12 12 12 12 11 11 11
15 14 14 13 13 12 12 11 11 11 11 10 10 10 10 10 10 10 10 10 10 10 10 11 11 11 11 12 12 12 12 12 12 12 12 12 12 12 11 11 11 11 11
15 15 14 14 13 13 12 12 12 11 11 11 10 10 10 10 10 10 10 10 10 10 10 11 11 11 11 12 12 12 12 12 12 12 12 12 12 12 11 11 11 11 11
16 16 15 14 14 13 13 12 12 12 11 11 11 11 10 10 10 10 10 10 10 10 10 11 11 11 11 11 11 12 12 12 12 12 12 12 12 11 11 11 11 11 11
16 16 15 15 14 14 13 13 12 12 12 11 11 11 11 11 11 11 11 10 10 10 10 10 11 11 11 11 11 11 12 12 12 12 12 11 11 11 11 11 11 11 10
16 16 16 15 15 14 14 13 13 12 12 12 12 11 11 11 11 11 11 11 11 11 10 10 11 11 11 11 11 11 12 12 11 11 11 11 11 11 11 11 10 10 10
17 16 16 16 15 15 14 14 13 13 12 12 12 12 11 11 11 11 11 11 11 11 11 11 11 11 11 11 11 11 11 11 11 11 11 11 11 11 11 10 10 10 10
17 16 16 16 15 15 15 14 14 13 13 13 12 12 12 11 11 11 11 11 11 11 11 11 11 11 11 11 11 11 11 11 11 11 11 11 11 10 10 10 10 10 10
16 16 16 16 16 15 15 15 14 14 13 13 13 12 12 12 12 12 12 11 11 11 11 11 11 11 11 11 11 11 11 11 11 11 11 10 10 10 10 10 10 9 9
16 16 16 16 16 15 15 15 14 14 14 13 13 13 12 12 12 12 12 12 12 11 11 11 11 11 11 11 11 11 11 11 11 11 10 10 10 10 10 10 9 9 9
15 15 15 16 15 15 15 15 15 14 14 14 13 13 13 12 12 12 12 12 12 12 11 12 12 11 11 11 11 11 11 11 11 10 10 10 10 10 10 9 9 9 9
14 14 14 15 15 15 15 15 15 15 14 14 14 13 13 13 12 12 12 12 12 12 12 12 12 12 12 11 11 11 11 11 11 10 10 10 10 10 9 9 9 9 9
12 12 13 13 13 14 14 14 15 15 14 14 14 14 13 13 13 12 12 12 12 12 12 12 12 12 12 12 12 11 11 11 11 10 10 10 10 10 9 9 9 9 8
Wind_Speed
5 5 5 6 6 6 6 7 7 7 8 9 8 7 7 7 6 5 4 3 1 1 2 4 6 6 6 7 7 7 7 6 5 3 2 3 5 7 8 10 10 10 11
4 4 5 5 6 6 7 7 7 8 8 8 8 8 7 7 7 6 5 4 3 2 2 2 4 5 6 6 7 8 7 6 5 6 3 4 4 7 8 8 8 9 10
3 4 5 5 6 6 7 7 7 7 8 8 8 8 7 7 7 6 5 4 4 3 2 2 3 3 5 5 6 7 7 7 5 5 4 3 3 6 7 7 7 6 9
2 3 4 5 6 6 6 7 7 7 7 8 8 7 7 7 6 6 5 5 4 3 2 1 1 2 4 6 6 7 7 7 6 7 6 5 4 6 7 8 7 5 6
1 2 4 5 5 5 6 7 6 7 7 7 7 8 8 6 6 6 5 5 4 4 3 2 1 1 1 3 5 6 7 7 7 7 7 6 6 8 8 6 8 8 6
1 3 3 4 5 6 6 6 6 7 7 7 7 7 8 7 11 10 6 4 4 4 4 3 3 3 3 1 4 8 9 9 8 7 6 8 8 8 7 9 9 7 4
2 3 3 4 5 5 6 6 6 6 6 6 7 7 7 9 12 12 9 5 4 4 4 3 3 3 3 2 1 5 8 9 10 8 9 8 9 10 11 10 9 7 5
3 3 3 4 5 5 5 6 6 5 5 5 6 6 6 8 13 12 10 5 4 4 4 3 2 3 2 2 3 4 4 4 6 7 7 8 8 9 9 9 11 10 9
4 4 4 4 4 5 5 6 4 4 5 5 4 5 6 8 12 12 9 4 4 4 4 4 3 2 2 2 4 5 5 4 5 7 8 10 13 15 14 12 11 12 7
6 5 4 4 4 5 5 4 3 3 4 5 5 5 5 6 10 12 10 3 4 4 4 4 5 3 1 2 3 5 6 5 6 8 9 11 12 15 16 12 12 12 7
5 4 4 4 4 5 4 3 3 4 5 5 5 5 5 6 9 11 10 4 3 3 3 4 3 4 3 3 4 4 6 7 7 9 9 8 8 8 7 6 6 9 7
5 5 5 5 4 3 3 3 3 3 4 5 5 6 5 6 7 9 10 8 5 2 3 3 3 3 4 5 5 7 10 9 7 8 8 7 7 7 6 7 9 8 6
6 6 6 5 4 3 3 3 3 3 3 4 4 4 5 5 6 10 10 9 8 3 3 4 4 4 5 5 7 9 7 6 7 8 7 6 5 6 7 7 9 11 13
7 7 6 5 5 4 3 3 3 3 3 3 3 4 4 5 5 6 6 6 6 5 3 4 5 7 7 7 7 6 5 5 6 7 6 5 5 6 6 6 6 7 6
8 7 6 6 6 5 4 4 5 5 5 4 3 2 3 4 5 8 6 4 4 3 2 2 3 3 4 4 5 5 5 5 6 5 6 7 7 6 5 5 5 4 4
8 8 6 6 5 5 5 5 7 8 8 9 8 6 4 6 8 8 7 6 5 3 2 2 2 3 3 4 4 4 4 5 5 6 7 7 7 7 6 4 4 4 5
10 9 6 6 6 5 5 5 5 5 6 8 9 9 8 7 6 6 6 5 4 3 2 1 1 2 2 3 3 3 3 3 4 6 7 7 7 6 6 6 5 5 5
11 11 9 7 7 6 6 6 5 5 4 4 5 8 9 8 6 4 3 2 2 2 1 1 1 1 1 2 3 3 3 4 4 5 6 6 6 6 6 6 6 5 5
10 8 8 7 7 7 6 6 6 6 6 5 4 4 6 6 5 4 2 1 2 2 1 1 1 1 1 2 3 3 4 4 5 5 5 6 6 5 5 5 5 8 5
10 14 11 8 7 7 6 6 6 6 6 6 6 6 3 3 3 4 4 4 4 4 3 3 3 3 3 3 3 4 4 4 5 5 5 5 5 5 6 7 7 6 5
9 10 14 9 8 8 8 8 8 7 7 7 8 7 9 6 6 6 6 5 5 6 5 5 4 4 4 3 4 5 6 5 5 5 5 5 6 5 5 6 6 6 5
8 8 8 9 9 9 9 8 8 8 9 9 7 6 11 7 6 6 7 7 7 6 6 5 5 5 5 5 5 6 6 6 6 6 6 6 6 6 6 6 6 5 6
8 9 9 9 9 11 10 8 8 9 9 9 8 7 6 8 8 8 8 8 7 7 6 6 6 6 5 6 6 6 7 7 7 8 7 7 7 7 6 6 7 6 6
8 9 10 9 9 9 10 10 10 10 10 9 9 8 8 9 9 10 9 8 8 7 7 7 8 9 10 7 8 10 10 10 10 9 10 9 8 7 7 6 7 7 7
8 8 9 9 9 10 10 10 10 10 10 10 10 9 8 9 9 9 9 8 9 9 10 9 8 9 11 12 11 12 14 14 13 12 10 7 8 8 8 7 6 6 6
10 9 8 8 8 9 9 10 11 11 11 11 10 10 10 10 10 10 9 9 9 9 10 9 11 12 13 14 16 18 18 17 17 15 12 7 8 8 8 7 8 7 7
Wind_Direction
334 338 344 344 345 349 352 350 346 346 349 352 351 353 356 356 357 358 354 343 309 267 236 216 212 202 198 199 196 197 198 187 187 177 168 162 165 163 157 158 159 158 162
327 339 345 345 348 352 348 344 345 347 348 349 352 355 357 356 355 358 357 349 336 317 280 235 224 212 200 195 197 196 194 185 177 171 166 168 166 163 153 149 145 149 148
330 343 349 350 348 344 341 340 344 346 348 352 355 355 350 346 346 347 348 347 341 322 304 266 239 214 208 201 196 194 189 185 169 160 156 146 139 151 143 136 134 129 138
330 342 343 339 336 333 334 340 345 346 349 349 347 345 342 339 339 342 348 348 345 339 326 301 270 231 216 201 195 188 176 171 166 162 153 146 141 145 146 144 138 126 127
312 325 326 327 332 336 340 340 342 347 350 344 346 347 344 340 342 348 348 346 346 350 355 0 355 20 205 193 188 179 172 168 166 162 154 151 152 157 157 147 140 129 111
267 296 313 329 337 339 337 339 343 344 343 347 350 346 347 348 347 357 2 349 346 354 356 359 6 30 34 55 189 184 176 170 170 164 157 162 162 155 145 147 142 138 127
255 288 309 322 329 330 335 342 341 338 341 344 346 348 345 340 351 2 8 7 354 354 355 355 8 19 24 19 127 166 173 174 173 163 161 165 163 161 154 153 149 133 123
253 280 295 309 315 323 334 339 333 329 336 335 337 342 341 345 356 0 6 9 2 1 358 352 356 355 2 43 85 107 117 137 161 164 166 164 159 155 150 142 132 113 105
251 264 275 286 303 318 326 328 327 331 335 331 329 342 346 341 353 359 5 357 4 359 352 352 354 354 357 96 112 118 109 97 102 129 136 139 143 142 138 134 136 138 134
244 250 263 271 283 297 307 313 318 323 322 327 334 342 344 340 348 356 2 356 359 354 351 353 352 351 11 120 125 130 127 120 118 114 115 123 134 143 145 150 152 149 139
237 244 258 265 269 276 295 308 318 327 332 339 337 336 342 344 348 355 2 3 350 346 347 346 345 3 42 95 114 126 131 126 120 119 118 120 124 132 131 126 137 149 144
226 239 254 262 267 274 282 304 322 333 336 340 343 339 339 341 347 351 2 8 4 355 341 340 345 24 64 91 102 118 120 118 120 120 122 125 129 131 123 112 105 93 88
222 238 250 261 260 258 259 282 306 321 326 328 338 335 332 336 345 358 1 2 6 7 337 348 24 64 77 88 100 109 114 117 122 121 123 118 109 118 117 107 94 89 82
224 238 244 252 262 258 244 237 245 271 288 305 317 321 325 331 340 348 347 349 359 8 5 18 49 67 78 87 87 82 87 104 116 120 117 110 107 115 120 119 119 115 102
228 237 241 240 247 253 248 234 229 232 217 228 248 255 289 316 314 328 333 333 336 337 5 29 47 69 76 76 77 78 85 99 105 110 118 121 120 118 115 114 120 113 116
226 235 234 234 237 237 247 268 243 234 244 237 230 222 237 255 293 321 336 344 349 10 63 63 65 81 92 98 100 91 84 102 111 119 122 126 130 129 123 114 110 120 126
221 228 224 223 227 230 229 238 265 273 251 247 244 239 239 257 286 313 332 348 7 44 73 80 79 92 104 112 115 112 114 117 120 125 128 130 130 129 128 127 122 119 123
223 229 223 220 219 220 221 224 227 240 266 273 256 245 244 248 259 278 314 2 17 32 72 135 140 128 127 134 138 132 129 127 125 129 131 134 137 136 137 141 142 140 139
223 226 222 218 215 215 216 217 220 226 234 247 261 266 243 237 243 245 222 187 216 227 220 219 213 194 176 167 162 155 152 152 147 143 143 145 147 141 145 150 149 148 141
230 230 217 213 213 213 212 214 219 222 228 234 239 237 204 181 212 225 210 208 212 218 213 211 215 213 196 182 172 164 159 158 157 156 160 160 160 158 159 162 164 166 170
235 233 223 214 213 213 212 215 218 218 223 230 237 226 193 197 214 217 213 213 215 216 212 207 206 204 199 187 180 178 177 177 175 172 169 169 167 168 170 170 174 173 163
243 235 222 219 218 216 215 215 213 217 222 229 239 234 211 207 214 216 217 220 217 214 207 201 204 203 198 192 188 185 186 186 185 181 178 176 176 174 169 171 172 173 172
257 244 234 228 222 220 218 215 214 217 222 225 226 221 208 212 218 220 222 220 214 211 205 201 205 209 204 200 196 190 193 197 192 183 181 179 178 178 175 178 178 174 185
274 256 246 239 229 222 220 220 218 219 221 222 222 219 217 217 219 220 220 215 210 208 203 201 206 209 205 201 204 205 206 202 191 188 182 181 183 182 180 181 184 188 191
300 276 260 250 240 233 229 226 222 220 220 221 221 220 217 217 219 222 219 212 208 209 207 204 206 209 208 204 203 206 208 203 196 189 184 181 184 184 183 185 185 188 189
331 311 288 271 257 247 239 234 230 225 222 222 220 218 216 216 218 220 216 210 210 212 210 207 207 206 207 209 210 210 208 205 201 195 185 180 184 188 186 191 192 191 192
Height
1518 1515 1512 1509 1506 1503 1500 1496 1493 1490 1487 1484 1481 1479 1477 1476 1475 1474 1474 1474 1474 1474 1474 1476 1477 1479 1481 1483 1486 1489 1493 1497 1500 1504 1508 1512 1515 1519 1523 1526 1530 1534 1537
1518 1515 1512 1509 1506 1503 1499 1496 1493 1490 1487 1484 1481 1479 1477 1476 1474 1473 1473 1472 1472 1472 1472 1472 1473 1475 1476 1479 1481 1483 1486 1490 1495 1498 1502 1505 1509 1514 1518 1521 1525 1529 1532
1518 1515 1512 1509 1506 1502 1499 1496 1494 1490 1487 1484 1482 1479 1477 1475 1474 1473 1471 1471 1470 1470 1469 1469 1470 1472 1473 1475 1476 1479 1482 1485 1489 1493 1496 1500 1504 1508 1513 1517 1521 1525 1528
1517 1515 1512 1509 1505 1502 1500 1497 1494 1491 1488 1485 1482 1480 1477 1475 1474 1472 1471 1470 1469 1468 1468 1468 1468 1469 1469 1471 1472 1475 1478 1481 1484 1488 1492 1496 1500 1504 1508 1512 1517 1521 1525
1517 1514 1511 1509 1506 1503 1500 1497 1494 1491 1489 1486 1483 1480 1478 1476 1474 1472 1470 1469 1468 1467 1467 1466 1467 1467 1467 1468 1469 1471 1474 1477 1481 1484 1488 1492 1496 1501 1505 1509 1514 1518 1522
1516 1513 1511 1508 1506 1503 1500 1497 1494 1492 1489 1486 1483 1481 1478 1476 1474 1472 1470 1469 1468 1467 1466 1466 1466 1466 1465 1466 1468 1470 1472 1475 1478 1481 1485 1489 1493 1497 1502 1507 1511 1515 1520
1515 1513 1511 1508 1506 1503 1500 1497 1494 1492 1489 1486 1484 1481 1478 1476 1474 1472 1470 1469 1468 1467 1466 1466 1465 1465 1465 1466 1467 1468 1471 1474 1477 1480 1483 1486 1490 1494 1499 1504 1509 1513 1517
1514 1512 1510 1508 1505 1503 1500 1497 1494 1492 1489 1486 1483 1481 1478 1476 1474 1472 1470 1469 1468 1467 1466 1466 1465 1465 1465 1466 1467 1468 1470 1472 1475 1479 1483 1486 1490 1494 1498 1502 1507 1512 1517
1513 1511 1509 1507 1505 1503 1500 1498 1495 1492 1489 1486 1483 1481 1479 1476 1474 1472 1471 1469 1468 1467 1466 1466 1465 1465 1465 1466 1467 1469 1470 1472 1475 1479 1482 1486 1490 1493 1497 1502 1506 1510 1515
1512 1511 1509 1507 1505 1503 1500 1498 1495 1492 1489 1486 1483 1481 1478 1476 1474 1472 1471 1470 1468 1467 1466 1466 1466 1466 1466 1467 1468 1469 1471 1473 1476 1479 1482 1486 1490 1493 1498 1502 1505 1509 1513
1511 1510 1508 1507 1505 1503 1500 1498 1495 1492 1489 1486 1483 1481 1479 1476 1475 1473 1471 1470 1469 1468 1467 1466 1466 1466 1467 1467 1468 1470 1472 1475 1477 1480 1483 1487 1490 1494 1498 1502 1506 1510 1513
1510 1509 1507 1506 1504 1502 1500 1498 1495 1492 1489 1486 1484 1481 1479 1477 1475 1474 1472 1471 1470 1469 1468 1467 1467 1467 1468 1468 1470 1472 1474 1476 1479 1482 1485 1488 1491 1494 1498 1502 1506 1510 1514
1508 1507 1506 1504 1503 1501 1499 1497 1495 1492 1490 1487 1484 1481 1479 1477 1476 1474 1473 1472 1471 1470 1469 1469 1468 1469 1469 1470 1471 1473 1476 1478 1480 1483 1486 1489 1492 1495 1499 1502 1506 1510 1514
1506 1505 1504 1502 1501 1500 1498 1496 1494 1492 1490 1487 1485 1482 1480 1478 1476 1475 1474 1473 1472 1471 1471 1470 1470 1471 1472 1472 1474 1475 1478 1480 1483 1485 1487 1490 1493 1497 1500 1503 1506 1510 1513
1503 1502 1501 1500 1499 1497 1496 1495 1493 1491 1489 1487 1485 1483 1481 1479 1477 1476 1475 1474 1473 1473 1473 1472 1472 1473 1474 1475 1476 1478 1480 1482 1485 1487 1489 1491 1494 1497 1500 1504 1507 1510 1513
1500 1499 1498 1497 1496 1495 1494 1492 1491 1490 1488 1486 1485 1483 1481 1480 1478 1477 1476 1475 1475 1474 1474 1474 1474 1475 1476 1477 1478 1480 1482 1484 1486 1489 1491 1493 1496 1498 1501 1504 1507 1510 1512
1496 1495 1494 1494 1493 1492 1490 1489 1489 1488 1486 1485 1484 1482 1481 1479 1478 1477 1476 1476 1476 1475 1476 1476 1476 1477 1478 1479 1481 1483 1484 1486 1488 1490 1493 1495 1497 1499 1502 1504 1507 1509 1511
1491 1491 1490 1489 1488 1488 1487 1486 1485 1485 1484 1483 1482 1481 1480 1479 1478 1477 1476 1476 1476 1476 1476 1477 1478 1478 1480 1481 1483 1484 1486 1488 1489 1491 1493 1495 1498 1500 1502 1504 1506 1509 1510
1485 1485 1485 1484 1484 1483 1482 1482 1481 1481 1480 1480 1479 1479 1478 1477 1477 1476 1476 1475 1475 1476 1476 1477 1478 1479 1481 1482 1483 1485 1487 1488 1490 1492 1494 1496 1498 1500 1502 1504 1506 1508 1509
1478 1479 1479 1478 1478 1478 1477 1477 1476 1476 1476 1476 1475 1476 1475 1475 1474 1474 1474 1474 1474 1474 1475 1476 1477 1478 1480 1481 1483 1484 1486 1488 1490 1492 1493 1495 1497 1499 1501 1503 1505 1506 1508
1470 1471 1471 1471 1471 1471 1471 1471 1471 1470 1470 1470 1471 1471 1471 1471 1471 1471 1471 1471 1471 1472 1472 1474 1475 1476 1478 1479 1481 1483 1485 1487 1488 1490 1492 1494 1496 1498 1499 1501 1503 1504 1506
1462 1462 1463 1463 1464 1464 1464 1464 1464 1464 1464 1464 1465 1466 1466 1466 1466 1466 1466 1467 1467 1468 1469 1470 1471 1472 1474 1476 1478 1480 1482 1484 1486 1488 1490 1491 1493 1495 1497 1498 1500 1501 1503
1453 1453 1454 1454 1455 1456 1457 1457 1457 1457 1457 1457 1458 1459 1459 1460 1460 1461 1461 1462 1462 1463 1464 1465 1466 1468 1470 1471 1473 1475 1478 1480 1482 1484 1486 1488 1489 1491 1493 1494 1496 1497 1499
1445 1445 1445 1445 1446 1447 1448 1448 1449 1449 1450 1450 1451 1452 1452 1453 1454 1455 1456 1456 1457 1458 1459 1460 1461 1463 1465 1466 1468 1470 1473 1475 1477 1479 1481 1483 1485 1486 1488 1490 1491 1493 1494
1438 1437 1436 1436 1437 1438 1438 1439 1440 1441 1441 1442 1442 1443 1444 1445 1446 1447 1449 1450 1451 1451 1453 1454 1455 1457 1459 1461 1463 1465 1467 1469 1471 1473 1475 1477 1479 1481 1483 1484 1486 1487 1489
1433 1430 1429 1428 1428 1428 1429 1430 1431 1432 1432 1433 1434 1434 1436 1437 1438 1439 1441 1442 1443 1444 1446 1447 1449 1450 1452 1454 1456 1458 1461 1463 1465 1467 1469 1471 1473 1475 1476 1478 1480 1481 1483